Wind_Speed
29 29 28 28 29 31 33 34 34 33 32 30 31 29 29 35 43 47 38 23 22 7 3 2 1 5 1 1 3 1 3 2 3 3 4 4 4 4 4 8 10 7 5 3 5 5 8 4 7 3 5 5 6 3
28 28 28 28 29 29 28 30 34 33 31 30 30 28 29 30 47 53 28 23 18 6 3 6 6 8 5 5 4 2 1 3 5 2 2 2 3 3 2 3 2 3 5 5 5 6 5 2 5 2 3 6 5 11
30 30 28 27 26 24 23 25 29 31 30 29 28 30 30 32 38 49 29 19 19 10 8 8 14 14 13 11 7 4 3 3 3 1 2 2 4 2 2 3 4 9 8 3 3 4 2 12 21 10 4 3 8 8
38 35 32 29 26 26 26 24 27 28 29 28 29 29 30 40 48 50 39 19 20 7 3 6 8 17 21 17 14 18 19 13 4 2 2 2 2 3 2 3 4 7 5 2 3 13 11 3 17 11 6 5 7 8
31 30 29 27 27 26 26 28 29 30 31 31 29 30 32 41 47 44 37 24 22 6 2 3 7 15 11 12 15 21 19 17 11 4 3 3 4 4 3 4 5 7 4 4 3 12 2 12 20 14 16 10 8 11
37 33 31 24 25 25 25 28 28 29 35 31 30 30 34 43 42 38 13 25 25 17 2 2 4 10 13 18 19 17 20 21 14 6 4 5 12 4 3 3 8 7 1 8 8 9 1 5 7 12 13 12 11 10
20 17 16 18 25 21 19 23 26 31 30 30 33 39 43 39 39 20 8 12 21 15 5 2 4 2 11 18 18 22 20 16 14 6 8 6 6 4 3 7 7 22 28 20 6 3 4 7 4 9 11 13 11 11
14 15 16 15 20 17 23 28 30 33 35 35 35 39 38 33 30 13 11 10 24 12 5 1 3 3 4 6 10 14 9 12 10 7 4 4 6 9 6 9 22 28 27 24 16 9 2 10 11 10 11 11 13 13
14 25 22 18 23 28 33 34 37 40 42 43 43 40 34 20 11 11 7 15 21 6 6 4 2 2 4 6 4 4 5 2 5 3 5 6 3 7 9 15 17 21 20 17 14 10 8 12 14 13 9 14 15 16
38 36 37 37 37 39 40 41 41 41 39 37 34 11 6 11 11 17 11 8 8 7 3 3 5 3 8 6 6 5 6 3 4 6 9 5 5 23 25 27 20 22 10 15 18 11 12 10 13 15 13 13 15 15
36 35 34 34 35 35 35 36 36 35 34 19 6 6 17 21 12 4 5 4 5 3 6 8 18 5 10 3 4 9 2 3 3 5 5 3 3 5 18 23 11 4 9 11 10 8 11 12 16 15 14 12 12 12
31 30 29 29 28 28 28 29 29 26 12 7 16 21 19 5 4 3 3 4 5 5 9 6 10 20 7 8 3 3 3 2 3 10 2 2 2 6 6 9 10 9 6 11 9 8 8 13 15 15 14 13 14 14
26 25 25 25 25 24 25 24 21 22 28 20 7 4 4 2 3 7 7 4 3 5 10 11 3 6 4 5 2 2 4 4 3 2 3 3 6 8 13 15 16 13 11 10 12 10 12 15 13 14 14 12 11 11
21 21 20 23 22 20 21 20 23 21 5 3 4 4 3 3 4 3 1 1 3 2 3 12 7 4 4 3 2 3 2 2 2 1 3 0 7 8 12 13 12 12 10 10 12 13 15 14 14 11 8 8 8 10
17 16 16 16 15 17 18 14 10 8 3 3 2 1 3 1 1 2 2 4 4 3 12 7 5 4 2 2 2 2 2 3 4 2 1 3 3 7 13 13 11 9 8 10 11 12 12 12 13 11 10 9 9 9
11 11 9 11 11 10 14 7 6 4 2 2 1 2 3 3 1 2 3 5 4 5 9 4 2 4 2 2 4 5 3 4 1 2 2 2 3 9 12 11 9 11 11 12 12 11 12 11 10 10 11 10 9 8
6 11 12 12 13 12 6 6 2 2 1 1 2 3 4 3 2 2 3 4 3 3 1 2 3 5 3 3 3 1 1 1 6 3 3 4 7 5 8 9 12 12 12 12 12 12 12 11 11 10 10 10 8 8
17 13 9 9 11 7 3 2 1 1 1 2 2 1 1 3 5 5 5 7 4 0 3 2 5 2 3 2 1 2 3 4 2 3 3 4 8 9 8 11 13 12 12 11 11 11 11 10 9 9 8 8 8 8
9 9 9 10 5 2 1 0 2 1 1 3 4 5 4 4 4 6 7 8 9 8 4 5 0 1 2 2 2 3 4 3 5 3 3 3 6 8 11 12 12 11 11 11 11 10 10 8 5 5 7 8 7 8
12 10 10 5 5 4 1 2 2 2 1 1 3 4 3 4 3 4 3 1 4 3 2 1 1 2 2 4 4 3 5 4 4 6 5 5 8 10 11 11 13 14 13 12 10 11 12 11 8 6 8 8 7 6
7 7 4 1 3 2 3 3 1 2 3 3 5 5 3 2 3 1 3 3 2 1 1 1 2 4 4 4 6 6 7 6 8 7 9 11 10 11 13 12 13 12 12 11 10 12 10 9 8 9 10 10 10 9
2 1 1 3 2 2 2 1 3 4 3 4 3 3 3 1 2 2 3 3 1 1 2 3 5 7 8 6 5 5 5 6 6 6 6 9 12 10 10 11 12 12 11 10 8 10 8 7 7 9 9 9 10 9
1 1 2 2 2 2 3 3 2 2 1 2 2 2 2 2 2 3 3 3 3 5 5 6 6 7 7 7 6 5 5 6 7 8 9 9 9 8 8 9 8 8 9 8 7 7 7 6 6 6 6 6 7 9
4 3 2 1 2 2 3 2 2 3 2 2 1 2 1 2 0 2 3 5 5 7 7 10 10 9 9 6 6 6 7 7 9 10 9 9 10 9 8 8 8 9 9 8 8 7 6 4 6 6 6 7 8 10
2 2 1 2 1 1 1 1 1 2 2 3 1 2 1 2 2 3 3 5 8 8 8 11 13 13 13 11 9 8 7 9 10 11 10 9 10 9 9 9 8 11 13 10 9 8 7 6 7 9 9 7 9 9
0 1 0 1 2 2 2 2 3 3 1 1 3 2 0 0 2 4 1 2 3 7 8 13 15 13 14 14 11 14 12 11 11 12 11 11 12 11 10 8 5 2 5 8 9 9 9 8 8 9 9 10 11 11
1 2 1 2 4 5 3 3 4 0 2 3 2 2 2 3 4 2 1 2 4 6 9 11 12 14 14 15 14 15 14 14 13 13 11 12 12 13 12 11 10 8 6 6 10 10 9 9 10 9 11 13 14 14
2 2 1 1 3 3 2 2 1 3 3 1 1 1 3 4 1 2 4 4 6 8 10 9 7 8 14 15 13 12 12 14 15 14 12 11 11 11 12 13 13 11 8 7 9 11 10 10 10 11 13 13 14 14
2 2 4 3 4 5 5 4 4 3 3 3 2 2 4 3 3 5 8 8 5 8 8 9 12 12 11 10 9 9 10 13 14 14 13 11 9 10 11 11 11 9 8 7 7 8 9 10 11 12 12 12 13 13
2 4 4 3 3 4 4 6 4 6 5 7 9 10 11 13 16 14 12 11 10 10 10 9 8 10 11 11 10 9 10 12 12 13 12 13 8 5 6 8 7 7 7 7 8 8 8 8 9 9 9 11 12 12
6 4 4 5 5 6 8 11 13 15 18 15 16 18 20 18 16 15 15 14 10 7 10 12 12 10 11 10 11 12 14 16 16 13 11 10 10 8 7 7 7 6 7 8 8 9 9 9 10 10 10 10 10 10
5 6 4 3 4 5 12 8 5 8 7 9 14 16 12 9 6 9 11 11 12 14 15 14 13 12 13 14 12 10 8 7 12 14 11 10 9 8 7 7 7 7 7 8 8 9 9 8 8 8 8 8 8 9
12 13 14 9 5 3 4 3 4 5 7 4 4 9 10 7 6 6 5 8 10 10 12 13 13 14 13 14 13 11 9 8 9 9 8 6 6 6 8 9 8 8 8 8 8 8 7 7 7 7 8 8 8 8
Wind_Direction
279 274 269 264 257 254 250 247 244 243 241 239 240 234 232 232 221 203 196 199 192 200 215 218 63 130 184 83 145 89 54 299 60 131 186 221 245 247 250 262 256 251 203 189 209 231 260 354 125 173 207 160 176 156
277 273 267 262 266 253 244 241 240 238 233 231 232 227 222 213 182 190 198 206 175 174 228 229 196 173 158 153 125 103 95 352 148 170 221 308 314 335 298 265 97 287 200 179 194 219 224 204 153 68 272 196 183 153
278 273 267 263 260 252 249 248 231 227 225 227 228 218 213 214 214 186 193 186 192 220 255 256 223 213 225 225 219 157 206 165 177 182 185 252 263 331 278 280 357 355 312 223 337 264 189 319 311 263 248 327 161 160
275 270 265 259 253 247 247 234 219 220 221 223 216 209 215 212 195 183 198 193 199 158 205 255 236 236 233 228 228 230 234 245 266 272 200 253 265 279 258 250 264 247 266 274 285 283 312 311 246 217 201 187 139 144
266 259 255 255 247 241 234 226 224 224 224 211 202 204 196 179 173 184 194 202 218 189 196 274 262 237 236 227 234 226 233 235 234 171 190 235 255 269 276 248 250 223 226 186 215 256 225 204 213 204 180 170 169 163
265 260 253 255 236 230 228 229 214 207 196 192 196 194 181 168 175 179 174 180 175 204 187 304 275 259 225 224 224 219 223 225 214 195 183 225 239 250 255 250 244 194 141 223 223 183 181 141 152 164 165 167 171 168
243 234 200 208 221 212 199 191 181 183 181 178 169 160 164 171 176 167 152 157 175 184 158 294 267 255 240 220 223 223 223 221 217 206 200 218 219 251 266 247 293 279 281 297 239 183 140 174 166 154 169 167 162 164
127 129 145 130 136 144 150 148 152 149 159 157 158 153 159 161 159 123 94 134 173 161 164 237 261 231 188 192 195 206 202 203 211 200 209 211 203 204 245 245 254 258 265 275 229 189 220 175 160 163 177 164 159 158
118 128 137 145 126 129 127 129 130 131 131 134 137 140 143 148 145 144 133 153 173 171 176 191 217 246 172 180 146 157 184 211 211 215 195 184 201 226 228 238 251 262 257 258 183 175 170 167 158 170 171 161 166 161
99 101 103 109 111 112 113 116 120 125 128 133 129 109 99 149 147 161 144 160 165 204 213 235 229 232 160 177 187 176 196 215 205 222 172 215 246 243 248 251 258 276 239 169 156 163 166 162 176 173 171 178 180 173
95 99 105 112 117 120 124 128 132 135 136 118 81 77 135 144 135 143 147 163 169 220 216 223 210 181 208 153 205 204 201 210 219 179 193 201 257 253 257 246 223 166 163 164 177 186 219 202 176 164 163 169 175 176
94 97 104 109 116 123 127 132 136 133 108 101 127 132 125 125 124 147 164 180 200 222 191 194 214 202 174 185 149 234 237 214 267 140 189 265 271 30 34 123 175 168 163 146 144 137 168 176 171 166 164 163 170 176
90 96 107 117 124 125 129 131 131 122 109 108 86 117 131 141 152 175 184 197 203 215 183 181 114 138 134 168 157 226 229 232 321 69 223 217 62 67 115 118 115 123 138 126 126 140 149 146 158 173 168 174 181 180
90 96 108 121 125 132 132 132 124 130 109 106 132 139 194 171 238 189 338 54 247 303 113 153 128 147 152 153 181 252 270 24 346 221 219 284 50 60 124 126 130 123 131 130 130 143 146 152 152 153 157 164 178 183
82 94 102 111 120 138 146 145 157 176 71 82 76 212 208 257 102 196 285 284 277 205 176 129 115 141 133 139 224 187 8 261 206 231 100 96 61 88 128 137 137 137 137 143 145 151 152 157 160 160 163 164 160 164
100 97 115 126 145 123 143 134 135 109 71 55 230 288 314 294 226 288 280 260 255 254 137 129 158 169 177 199 185 208 202 219 139 61 91 171 137 132 134 136 143 145 146 147 149 150 151 156 163 161 151 149 150 155
116 110 123 138 134 141 141 104 71 60 93 272 258 260 267 279 298 337 275 276 264 218 151 194 197 191 157 195 212 135 99 78 138 166 192 197 204 177 163 156 163 158 152 151 147 145 145 146 148 150 153 151 154 156
102 107 125 121 126 128 98 43 17 45 303 288 325 78 291 281 286 275 274 260 272 0 122 267 305 158 180 187 51 137 131 137 148 192 222 225 217 215 186 174 169 166 161 156 154 153 156 157 161 163 166 164 168 172
115 119 145 133 105 114 184 272 273 243 196 324 306 286 279 289 279 272 281 263 242 255 266 230 184 53 105 66 111 132 174 194 192 194 185 203 176 176 174 171 171 162 162 159 157 154 153 155 153 182 184 179 184 189
74 80 112 97 25 6 301 275 263 300 35 325 289 276 254 264 321 346 282 280 292 267 253 32 89 125 130 168 157 164 189 188 181 152 141 128 134 138 143 151 152 152 153 149 148 157 161 159 169 162 160 177 204 222
91 81 59 325 319 334 326 330 345 358 320 276 309 276 257 280 269 333 342 292 294 311 99 105 168 175 164 168 175 182 173 182 187 187 181 152 156 154 152 150 146 150 158 158 158 160 177 182 186 192 193 199 213 226
2 137 27 324 283 263 271 306 296 302 269 282 277 249 266 182 254 300 305 243 247 183 210 212 201 175 161 166 173 178 184 202 190 178 175 175 161 160 159 163 167 167 170 177 186 186 196 217 232 227 218 216 219 222
272 193 250 252 279 252 260 273 254 244 236 264 235 249 203 190 205 304 256 240 229 208 202 199 184 182 193 180 163 168 191 198 185 165 157 162 166 166 173 171 175 187 186 184 202 198 202 211 203 192 189 191 198 190
246 250 253 233 226 279 314 306 277 283 319 296 250 270 175 156 151 253 265 187 201 203 203 201 200 184 156 157 159 167 181 181 161 154 159 169 167 164 173 171 169 174 178 182 187 194 204 231 206 191 181 172 170 164
262 301 279 285 256 249 269 272 289 299 241 218 306 293 208 165 237 234 232 169 185 199 210 198 188 184 179 183 182 174 172 180 171 157 157 165 167 168 164 174 181 202 204 201 182 203 215 230 206 190 190 190 183 189
232 281 44 309 261 229 235 270 210 230 280 284 247 120 206 303 253 246 67 101 184 205 214 205 201 205 209 206 199 183 183 180 182 177 174 178 181 184 199 208 237 216 189 184 186 202 215 222 213 212 207 203 211 210
259 250 241 261 299 301 317 264 297 292 242 228 237 175 184 234 245 103 148 206 207 195 207 216 224 221 207 200 201 202 197 196 198 201 204 203 201 203 209 226 234 243 249 220 193 199 214 207 208 217 207 207 219 223
343 314 190 315 300 268 228 308 220 231 248 213 36 245 215 219 218 190 212 233 222 221 227 223 206 199 201 201 204 213 215 208 206 208 210 212 217 220 222 226 232 239 241 222 202 195 205 209 210 211 210 209 206 215
286 327 319 276 255 254 225 208 232 246 166 158 159 273 336 311 245 283 313 317 271 221 238 239 219 218 217 220 231 229 211 206 205 205 213 222 225 227 219 217 221 220 220 211 203 201 200 203 211 218 221 216 213 216
338 339 294 250 183 247 234 226 249 255 248 246 260 263 275 283 288 293 293 297 280 228 216 232 233 234 225 221 216 206 195 193 204 219 219 223 229 229 214 208 203 202 202 203 205 205 206 209 209 208 212 209 209 212
283 289 257 240 262 269 265 267 272 281 281 268 259 256 263 272 276 280 281 280 272 224 222 232 231 233 227 226 225 225 217 217 214 218 217 216 215 223 224 217 211 201 195 197 201 199 202 204 206 207 205 204 205 209
245 236 254 265 279 283 306 293 278 267 269 249 244 243 240 225 233 256 254 241 230 222 221 227 241 239 226 225 228 233 225 215 204 212 216 216 222 225 221 216 209 202 196 194 192 195 198 202 204 200 199 202 196 189
256 257 263 274 270 253 188 240 265 269 238 250 233 243 254 255 218 224 244 242 221 220 224 224 229 229 220 218 224 225 219 212 207 213 222 223 220 216 210 204 199 195 192 193 193 195 196 199 202 198 188 182 179 178
Height
1377 1376 1376 1377 1378 1380 1382 1385 1388 1392 1396 1401 1406 1411 1416 1421 1427 1434 1444 1451 1456 1458 1458 1458 1459 1461 1464 1466 1473 1473 1476 1476 1480 1487 1489 1487 1479 1470 1466 1459 1458 1460 1468 1467 1473 1472 1465 1446 1447 1451 1450 1446 1447 1448
1368 1367 1367 1367 1367 1368 1371 1374 1378 1383 1388 1393 1398 1403 1409 1414 1417 1428 1440 1445 1449 1455 1456 1456 1458 1461 1464 1466 1469 1471 1475 1477 1478 1481 1483 1479 1475 1469 1464 1470 1454 1462 1457 1458 1460 1457 1444 1443 1444 1445 1448 1446 1445 1445
1358 1357 1357 1358 1359 1360 1363 1365 1369 1374 1380 1386 1391 1396 1402 1409 1417 1428 1438 1442 1448 1453 1457 1458 1458 1461 1463 1465 1467 1472 1474 1476 1477 1477 1479 1479 1477 1471 1472 1464 1460 1456 1455 1454 1454 1443 1440 1440 1441 1444 1445 1445 1444 1444
1345 1346 1347 1349 1351 1353 1356 1359 1363 1368 1374 1379 1385 1391 1396 1399 1412 1426 1434 1442 1448 1454 1458 1456 1455 1456 1459 1462 1464 1467 1470 1474 1476 1477 1478 1478 1476 1469 1466 1463 1463 1457 1456 1452 1453 1446 1439 1439 1441 1442 1443 1445 1445 1445
1333 1335 1336 1339 1341 1344 1347 1351 1356 1362 1368 1373 1380 1388 1394 1402 1411 1427 1437 1442 1447 1455 1455 1453 1452 1453 1455 1457 1459 1463 1466 1469 1472 1474 1477 1476 1472 1470 1463 1461 1455 1446 1446 1449 1446 1439 1436 1435 1437 1437 1439 1442 1444 1445
1320 1322 1327 1330 1332 1336 1339 1343 1349 1355 1361 1369 1377 1384 1393 1405 1417 1428 1436 1442 1445 1450 1455 1456 1451 1449 1451 1453 1456 1458 1461 1465 1467 1469 1470 1469 1467 1469 1468 1458 1441 1439 1440 1439 1437 1435 1434 1435 1435 1436 1437 1440 1442 1444
1309 1314 1320 1323 1325 1328 1332 1337 1344 1352 1361 1367 1375 1385 1397 1409 1419 1429 1433 1435 1443 1449 1453 1454 1449 1445 1445 1448 1451 1454 1457 1459 1462 1463 1463 1463 1462 1464 1457 1447 1438 1437 1435 1435 1435 1433 1434 1434 1435 1436 1437 1439 1442 1444
1311 1316 1320 1322 1326 1330 1335 1338 1340 1350 1360 1371 1382 1393 1403 1413 1423 1430 1433 1436 1442 1448 1451 1452 1447 1444 1443 1445 1448 1451 1453 1455 1456 1457 1458 1457 1457 1458 1446 1434 1432 1430 1429 1429 1430 1430 1431 1432 1434 1436 1437 1439 1441 1444
1321 1324 1328 1332 1335 1338 1340 1347 1352 1360 1369 1379 1389 1400 1410 1419 1426 1431 1435 1440 1443 1449 1448 1448 1447 1447 1444 1445 1447 1450 1451 1453 1452 1450 1450 1453 1449 1441 1428 1426 1426 1424 1424 1424 1425 1427 1430 1431 1433 1435 1437 1440 1442 1444
1332 1335 1339 1342 1346 1350 1355 1361 1367 1374 1382 1389 1399 1408 1417 1422 1427 1433 1439 1440 1444 1445 1445 1443 1442 1442 1442 1443 1446 1449 1448 1447 1444 1442 1443 1441 1433 1424 1420 1419 1420 1420 1418 1419 1421 1426 1429 1431 1432 1434 1436 1439 1441 1444
1350 1353 1355 1358 1361 1366 1370 1374 1379 1384 1390 1396 1402 1411 1418 1426 1430 1434 1437 1440 1442 1442 1439 1435 1435 1436 1438 1440 1442 1442 1438 1436 1431 1429 1432 1431 1425 1414 1411 1412 1419 1419 1418 1419 1422 1425 1427 1428 1431 1433 1436 1439 1441 1443
1365 1367 1369 1371 1374 1378 1382 1385 1389 1392 1397 1401 1405 1413 1421 1426 1430 1433 1435 1436 1435 1432 1427 1427 1427 1430 1432 1435 1437 1438 1432 1430 1418 1423 1425 1428 1419 1413 1413 1412 1415 1417 1420 1421 1422 1424 1426 1428 1430 1433 1436 1439 1441 1443
1376 1378 1380 1382 1384 1388 1390 1394 1398 1401 1404 1409 1414 1420 1422 1426 1428 1428 1428 1425 1427 1420 1418 1419 1424 1426 1431 1432 1434 1434 1429 1430 1420 1428 1426 1420 1416 1416 1415 1416 1417 1420 1422 1421 1421 1424 1427 1429 1432 1434 1437 1440 1442 1444
1386 1387 1389 1391 1393 1395 1398 1401 1404 1407 1410 1412 1415 1420 1421 1421 1421 1417 1416 1416 1415 1414 1414 1417 1421 1424 1427 1430 1430 1427 1425 1423 1429 1429 1418 1420 1418 1417 1417 1417 1419 1421 1422 1423 1424 1427 1429 1431 1434 1436 1439 1441 1442 1444
1393 1395 1396 1398 1400 1402 1404 1406 1408 1410 1410 1412 1414 1416 1417 1415 1415 1415 1415 1415 1414 1414 1415 1415 1419 1422 1424 1427 1426 1425 1428 1427 1421 1418 1418 1418 1419 1419 1418 1419 1421 1422 1424 1426 1428 1430 1431 1433 1435 1437 1440 1441 1443 1444
1399 1400 1401 1402 1404 1406 1408 1410 1410 1411 1413 1415 1416 1416 1415 1414 1414 1414 1414 1413 1413 1412 1412 1415 1416 1418 1420 1421 1421 1421 1418 1417 1417 1419 1419 1420 1420 1420 1420 1421 1422 1424 1426 1427 1429 1431 1433 1435 1437 1438 1440 1442 1443 1445
1400 1401 1404 1406 1408 1410 1411 1412 1413 1414 1415 1416 1415 1415 1415 1415 1415 1414 1413 1412 1413 1412 1411 1411 1413 1411 1412 1415 1414 1413 1417 1417 1418 1419 1420 1420 1420 1420 1420 1422 1424 1425 1427 1428 1430 1432 1433 1435 1437 1439 1440 1442 1444 1445
1404 1405 1408 1410 1411 1413 1414 1415 1415 1415 1416 1415 1415 1414 1414 1414 1413 1413 1411 1411 1412 1411 1411 1412 1408 1408 1414 1410 1416 1415 1417 1418 1418 1418 1418 1418 1418 1419 1420 1422 1424 1426 1427 1429 1431 1432 1434 1436 1437 1439 1441 1442 1443 1444
1408 1410 1412 1413 1414 1415 1416 1416 1416 1415 1415 1415 1415 1414 1414 1413 1412 1411 1411 1410 1411 1412 1410 1409 1407 1409 1412 1412 1413 1414 1415 1416 1417 1417 1417 1417 1417 1418 1420 1422 1424 1426 1428 1429 1431 1433 1435 1436 1438 1439 1440 1442 1443 1444
1414 1414 1415 1416 1416 1415 1416 1416 1415 1414 1414 1415 1414 1414 1413 1412 1412 1410 1410 1409 1410 1409 1408 1407 1409 1411 1411 1412 1412 1413 1414 1414 1415 1416 1417 1417 1418 1419 1421 1422 1424 1426 1428 1430 1432 1434 1435 1436 1438 1439 1440 1441 1442 1443
1418 1418 1418 1418 1417 1416 1417 1415 1415 1415 1415 1414 1413 1412 1411 1411 1410 1410 1410 1409 1409 1408 1408 1409 1410 1411 1411 1412 1412 1412 1413 1414 1415 1415 1416 1418 1420 1421 1422 1424 1425 1427 1429 1431 1432 1434 1435 1437 1438 1439 1440 1441 1442 1443
1419 1419 1418 1418 1418 1417 1416 1416 1416 1415 1415 1413 1412 1411 1410 1410 1410 1410 1410 1409 1408 1408 1409 1409 1410 1410 1411 1411 1412 1412 1413 1414 1415 1415 1416 1418 1420 1421 1423 1424 1425 1427 1429 1430 1432 1433 1434 1435 1436 1437 1438 1439 1440 1441
1419 1419 1418 1417 1417 1416 1417 1415 1414 1413 1413 1411 1411 1409 1409 1409 1409 1410 1408 1407 1407 1407 1407 1408 1409 1410 1410 1411 1411 1411 1413 1414 1414 1415 1416 1418 1420 1422 1423 1424 1425 1427 1428 1429 1430 1432 1433 1434 1434 1434 1435 1436 1437 1438
1419 1419 1417 1416 1416 1416 1415 1414 1413 1413 1411 1410 1409 1409 1408 1408 1408 1408 1406 1403 1403 1404 1406 1407 1408 1408 1410 1411 1411 1412 1413 1414 1414 1416 1417 1419 1420 1422 1424 1425 1426 1427 1428 1429 1429 1430 1431 1432 1433 1434 1435 1436 1437 1438
1421 1420 1419 1417 1417 1417 1416 1414 1414 1412 1414 1411 1410 1410 1408 1408 1408 1406 1402 1401 1402 1403 1404 1405 1406 1407 1408 1409 1411 1413 1414 1414 1414 1415 1416 1418 1420 1422 1423 1424 1425 1425 1426 1427 1428 1429 1430 1431 1432 1433 1434 1436 1437 1438
1421 1419 1419 1417 1416 1417 1414 1416 1415 1413 1411 1411 1409 1408 1408 1408 1408 1406 1400 1401 1401 1402 1403 1403 1404 1406 1406 1407 1409 1411 1412 1413 1414 1414 1416 1418 1419 1421 1422 1423 1423 1424 1424 1425 1426 1427 1428 1430 1431 1432 1433 1434 1435 1436
1420 1418 1417 1417 1417 1416 1414 1413 1412 1412 1413 1413 1407 1408 1407 1408 1406 1401 1401 1401 1401 1401 1401 1402 1402 1403 1404 1405 1407 1408 1410 1411 1412 1413 1414 1416 1417 1419 1420 1420 1420 1422 1422 1423 1424 1425 1427 1427 1429 1430 1431 1432 1433 1434
1419 1418 1419 1417 1416 1415 1415 1413 1412 1412 1408 1405 1406 1408 1408 1404 1401 1400 1400 1399 1399 1400 1400 1401 1402 1402 1402 1404 1405 1406 1408 1409 1410 1412 1413 1414 1415 1416 1417 1418 1418 1419 1419 1420 1421 1423 1424 1425 1426 1428 1429 1430 1431 1433
1418 1418 1418 1416 1415 1413 1411 1410 1407 1405 1405 1405 1406 1405 1401 1400 1399 1399 1398 1398 1397 1398 1398 1398 1400 1401 1402 1403 1404 1404 1405 1406 1408 1409 1410 1411 1412 1413 1414 1414 1415 1416 1417 1418 1419 1420 1421 1422 1424 1425 1426 1427 1429 1430
1418 1417 1417 1414 1414 1411 1406 1405 1404 1403 1403 1403 1403 1401 1400 1398 1397 1397 1396 1396 1396 1396 1397 1397 1398 1398 1399 1400 1401 1402 1403 1404 1405 1406 1407 1408 1410 1411 1411 1412 1413 1414 1415 1416 1417 1418 1419 1421 1422 1423 1425 1426 1427 1428
1417 1416 1414 1411 1407 1404 1403 1402 1401 1400 1399 1397 1397 1397 1395 1395 1393 1393 1392 1392 1392 1393 1394 1395 1396 1396 1397 1397 1398 1399 1400 1401 1403 1404 1405 1406 1408 1409 1410 1410 1411 1413 1414 1415 1416 1417 1418 1419 1421 1422 1423 1424 1425 1426
1414 1412 1410 1406 1403 1402 1401 1400 1398 1396 1393 1391 1390 1390 1390 1390 1390 1388 1387 1387 1388 1390 1391 1392 1392 1393 1394 1395 1396 1397 1398 1399 1400 1402 1403 1405 1405 1406 1407 1408 1410 1411 1412 1413 1415 1416 1417 1418 1419 1420 1421 1422 1424 1425
1409 1408 1407 1405 1401 1397 1397 1398 1396 1392 1389 1387 1385 1386 1386 1386 1385 1385 1384 1384 1386 1386 1387 1388 1389 1390 1391 1393 1394 1395 1397 1398 1399 1400 1401 1403 1404 1405 1405 1407 1408 1409 1411 1412 1413 1415 1416 1417 1418 1419 1420 1421 1423 1424